SWA247 KLAX-KLAS

Flight info

Callsign SWA247
Flight time N/A
Altitude 29000
Route ORCKA5 MISEN RNDRZ3
Aircraft B38M/M-SDE1FGHILORVWXY/HB1

Departure

Time 2026-05-08 06:07
Airport Los Angeles International Airport (KLAX)

Arrival

Time N/A
Airport Harry Reid International Airport (KLAS)
Time Latitude Longitude Altitude Speed Heading
2026-05-08 05:49 33.94713 -118.40480 95 ft 0 kts 132°
2026-05-08 05:52 33.94716 -118.40484 95 ft 2 kts 131°
2026-05-08 05:52 33.94725 -118.40500 89 ft 2 kts 121°
2026-05-08 05:52 33.94733 -118.40517 93 ft 2 kts 108°
2026-05-08 05:52 33.94736 -118.40537 87 ft 2 kts 88°
2026-05-08 05:53 33.94732 -118.40556 95 ft 2 kts 60°
2026-05-08 05:53 33.94721 -118.40570 95 ft 2 kts 30°
2026-05-08 05:53 33.94713 -118.40575 95 ft 0 kts
2026-05-08 05:57 33.94731 -118.40578 97 ft 7 kts 351°
2026-05-08 05:58 33.94774 -118.40631 96 ft 13 kts 276°
2026-05-08 05:58 33.94764 -118.40772 98 ft 20 kts 264°
2026-05-08 05:58 33.94745 -118.40953 96 ft 19 kts 264°
2026-05-08 05:58 33.94736 -118.41079 96 ft 17 kts 264°
2026-05-08 05:59 33.94687 -118.41245 96 ft 24 kts 226°
2026-05-08 05:59 33.94512 -118.41253 96 ft 28 kts 172°
2026-05-08 05:59 33.94303 -118.41223 96 ft 33 kts 172°
2026-05-08 05:59 33.94083 -118.41187 95 ft 16 kts 172°
2026-05-08 06:00 33.93975 -118.41170 98 ft 16 kts 174°
2026-05-08 06:00 33.93872 -118.41144 97 ft 15 kts 139°
2026-05-08 06:00 33.93853 -118.41030 98 ft 14 kts 86°
2026-05-08 06:00 33.93865 -118.40909 98 ft 15 kts 80°
2026-05-08 06:01 33.93883 -118.40783 97 ft 16 kts 82°
2026-05-08 06:01 33.93898 -118.40629 99 ft 21 kts 83°
2026-05-08 06:01 33.93920 -118.40431 96 ft 27 kts 82°
2026-05-08 06:01 33.93939 -118.40262 98 ft 20 kts 83°
2026-05-08 06:02 33.93957 -118.40087 96 ft 22 kts 83°
2026-05-08 06:02 33.93976 -118.39901 96 ft 23 kts 83°
2026-05-08 06:02 33.93994 -118.39693 96 ft 31 kts 83°
2026-05-08 06:02 33.94034 -118.39280 97 ft 31 kts 82°
2026-05-08 06:03 33.94055 -118.38999 95 ft 36 kts 85°
2026-05-08 06:03 33.94085 -118.38695 99 ft 38 kts 83°
2026-05-08 06:03 33.94105 -118.38379 98 ft 37 kts 113°
2026-05-08 06:03 33.94079 -118.38082 96 ft 24 kts 85°
2026-05-08 06:04 33.94075 -118.38041 95 ft 0 kts 107°
2026-05-08 06:04 33.94077 -118.38048 95 ft 1 kts 105°
2026-05-08 06:04 33.94067 -118.38023 98 ft 6 kts 123°
2026-05-08 06:04 33.94029 -118.37999 96 ft 6 kts 179°
2026-05-08 06:05 33.93987 -118.38022 96 ft 7 kts 242°
2026-05-08 06:05 33.93980 -118.38053 97 ft 1 kts 259°
2026-05-08 06:05 33.93977 -118.38077 96 ft 4 kts 261°
2026-05-08 06:05 33.93972 -118.38114 96 ft 0 kts 265°
2026-05-08 06:06 33.93972 -118.38115 96 ft 1 kts 265°
2026-05-08 06:06 33.93968 -118.38158 100 ft 27 kts 263°
2026-05-08 06:07 33.93904 -118.38769 98 ft 118 kts 263°
2026-05-08 06:07 33.93771 -118.40056 112 ft 189 kts 262°
2026-05-08 06:07 33.93616 -118.41776 778 ft 214 kts 263°
2026-05-08 06:07 33.93435 -118.43560 1993 ft 221 kts 262°
2026-05-08 06:08 33.93215 -118.45405 2358 ft 264 kts 261°
2026-05-08 06:08 33.92820 -118.47624 3334 ft 267 kts 257°
2026-05-08 06:08 33.92210 -118.49755 4446 ft 244 kts 248°
2026-05-08 06:08 33.91474 -118.51336 6499 ft 206 kts 233°
2026-05-08 06:09 33.90847 -118.53005 6591 ft 247 kts 262°
2026-05-08 06:09 33.90431 -118.55202 6782 ft 280 kts 246°
2026-05-08 06:09 33.89253 -118.57042 7834 ft 282 kts 221°
2026-05-08 06:09 33.87488 -118.58129 8667 ft 292 kts 192°
2026-05-08 06:10 33.85474 -118.58055 9641 ft 295 kts 163°
2026-05-08 06:10 33.83679 -118.56840 10407 ft 304 kts 135°
2026-05-08 06:10 33.82511 -118.54672 10867 ft 320 kts 106°
2026-05-08 06:10 33.82341 -118.51978 11373 ft 331 kts 78°
2026-05-08 06:11 33.83266 -118.49439 11985 ft 339 kts 51°
2026-05-08 06:11 33.84915 -118.47400 12739 ft 342 kts 46°
2026-05-08 06:11 33.86517 -118.45303 13478 ft 346 kts 48°
2026-05-08 06:11 33.88134 -118.43132 14202 ft 350 kts 49°
2026-05-08 06:12 33.89756 -118.40922 14883 ft 354 kts 49°
2026-05-08 06:12 33.91384 -118.38688 15558 ft 357 kts 49°
2026-05-08 06:12 33.93026 -118.36425 16219 ft 361 kts 49°
2026-05-08 06:12 33.94683 -118.34140 16856 ft 365 kts 48°
2026-05-08 06:13 33.96375 -118.31788 17048 ft 378 kts 48°
2026-05-08 06:13 33.98099 -118.29390 17391 ft 378 kts 48°
2026-05-08 06:13 33.99810 -118.27041 18409 ft 370 kts 47°
2026-05-08 06:13 34.01521 -118.24696 18908 ft 376 kts 48°
2026-05-08 06:14 34.03247 -118.22310 19439 ft 379 kts 48°
2026-05-08 06:14 34.04985 -118.19909 19998 ft 381 kts 48°
2026-05-08 06:14 34.06736 -118.17489 20558 ft 384 kts 48°
2026-05-08 06:14 34.08494 -118.15060 21094 ft 386 kts 48°
2026-05-08 06:15 34.10269 -118.12605 21609 ft 389 kts 48°
2026-05-08 06:15 34.12035 -118.10111 22090 ft 393 kts 53°
2026-05-08 06:15 34.13550 -118.07352 22613 ft 396 kts 56°
2026-05-08 06:15 34.15087 -118.04575 23070 ft 400 kts 55°
2026-05-08 06:16 34.16652 -118.01782 23561 ft 403 kts 55°
2026-05-08 06:16 34.18234 -117.98975 23980 ft 406 kts 54°
2026-05-08 06:16 34.19831 -117.96154 24396 ft 408 kts 55°
2026-05-08 06:16 34.21440 -117.93312 24796 ft 411 kts 55°
2026-05-08 06:17 34.24683 -117.87579 25602 ft 416 kts 55°
2026-05-08 06:17 34.26317 -117.84685 25995 ft 418 kts 55°
2026-05-08 06:17 34.27958 -117.81779 26362 ft 420 kts 55°
2026-05-08 06:18 34.29610 -117.78849 26785 ft 423 kts 55°
2026-05-08 06:18 34.31272 -117.75902 27160 ft 425 kts 55°
2026-05-08 06:18 34.32941 -117.72938 27521 ft 428 kts 55°
2026-05-08 06:18 34.34623 -117.69963 27892 ft 430 kts 54°
2026-05-08 06:19 34.36379 -117.67017 28247 ft 432 kts 53°
2026-05-08 06:19 34.38139 -117.64064 28597 ft 435 kts 53°
2026-05-08 06:19 34.39905 -117.61088 28936 ft 437 kts 53°
2026-05-08 06:19 34.41684 -117.58085 29043 ft 438 kts 53°
2026-05-08 06:20 34.45216 -117.52115 28995 ft 435 kts 53°
2026-05-08 06:20 34.48713 -117.46195 29099 ft 435 kts 53°
2026-05-08 06:21 34.52236 -117.40220 29107 ft 435 kts 53°
2026-05-08 06:21 34.55754 -117.34244 29110 ft 435 kts 53°
2026-05-08 06:22 34.59270 -117.28260 29110 ft 436 kts 53°
2026-05-08 06:22 34.62783 -117.22271 29087 ft 436 kts 53°
2026-05-08 06:23 34.66299 -117.16269 28975 ft 435 kts 53°
2026-05-08 06:23 34.69798 -117.10284 28962 ft 434 kts 53°
2026-05-08 06:24 34.73294 -117.04295 28974 ft 434 kts 53°
2026-05-08 06:24 34.76782 -116.98311 28974 ft 434 kts 53°
2026-05-08 06:25 34.80268 -116.92318 28994 ft 434 kts 53°
2026-05-08 06:25 34.83755 -116.86314 29002 ft 435 kts 53°
2026-05-08 06:26 34.87242 -116.80301 28993 ft 434 kts 53°
2026-05-08 06:26 34.90717 -116.74297 28996 ft 433 kts 53°
2026-05-08 06:27 34.94187 -116.68289 28986 ft 434 kts 53°
2026-05-08 06:27 34.97660 -116.62271 28964 ft 434 kts 53°
2026-05-08 06:28 35.01119 -116.56263 28945 ft 426 kts 53°
2026-05-08 06:28 35.02783 -116.53369 28949 ft 410 kts 53°
2026-05-08 06:28 35.04408 -116.50543 28684 ft 400 kts 53°
2026-05-08 06:29 35.05992 -116.47786 28219 ft 397 kts 53°
2026-05-08 06:29 35.07575 -116.45030 27750 ft 394 kts 53°
2026-05-08 06:29 35.09121 -116.42334 27289 ft 391 kts 53°
2026-05-08 06:29 35.10785 -116.39667 26788 ft 389 kts 45°
2026-05-08 06:30 35.12647 -116.37283 26320 ft 387 kts 45°
2026-05-08 06:30 35.14482 -116.34906 25906 ft 384 kts 45°
2026-05-08 06:30 35.16286 -116.32571 25503 ft 382 kts 45°
2026-05-08 06:30 35.18130 -116.30186 25066 ft 380 kts 45°
2026-05-08 06:31 35.19917 -116.27872 24637 ft 378 kts 45°
2026-05-08 06:31 35.21720 -116.25537 24215 ft 377 kts 45°
2026-05-08 06:31 35.23485 -116.23159 23732 ft 378 kts 46°
2026-05-08 06:31 35.25236 -116.20761 23243 ft 378 kts 46°
2026-05-08 06:32 35.26982 -116.18377 22809 ft 375 kts 46°
2026-05-08 06:32 35.28718 -116.16009 22402 ft 372 kts 46°
2026-05-08 06:32 35.30432 -116.13668 22006 ft 369 kts 46°
2026-05-08 06:32 35.32141 -116.11330 21605 ft 366 kts 46°
2026-05-08 06:33 35.33834 -116.09006 21146 ft 365 kts 46°
2026-05-08 06:33 35.35517 -116.06693 20811 ft 361 kts 46°
2026-05-08 06:33 35.37179 -116.04409 20465 ft 358 kts 46°
2026-05-08 06:33 35.38824 -116.02146 20148 ft 354 kts 46°
2026-05-08 06:34 35.40454 -115.99903 19792 ft 352 kts 46°
2026-05-08 06:34 35.42076 -115.97670 19431 ft 350 kts 46°
2026-05-08 06:34 35.43689 -115.95447 19060 ft 348 kts 46°
2026-05-08 06:34 35.45293 -115.93235 18706 ft 346 kts 46°
2026-05-08 06:35 35.46890 -115.91031 18336 ft 345 kts 46°
2026-05-08 06:35 35.48479 -115.88836 17944 ft 343 kts 46°
2026-05-08 06:35 35.49547 -115.87361 17670 ft 342 kts 46°
2026-05-08 06:35 35.51123 -115.85183 17294 ft 339 kts 46°
2026-05-08 06:36 35.52659 -115.83057 16940 ft 337 kts 46°
2026-05-08 06:36 35.54208 -115.80913 16582 ft 334 kts 47°
2026-05-08 06:36 35.55738 -115.78795 16291 ft 328 kts 47°
2026-05-08 06:36 35.57229 -115.76729 16142 ft 319 kts 47°
2026-05-08 06:37 35.58681 -115.74718 16001 ft 310 kts 46°
2026-05-08 06:37 35.60119 -115.72775 15826 ft 305 kts 46°
2026-05-08 06:37 35.61552 -115.70843 15669 ft 306 kts 46°
2026-05-08 06:37 35.62987 -115.68905 15521 ft 306 kts 46°
2026-05-08 06:38 35.64415 -115.66975 15377 ft 306 kts 46°
2026-05-08 06:38 35.65843 -115.65044 15222 ft 305 kts 46°
2026-05-08 06:38 35.67267 -115.63116 15076 ft 305 kts 46°
2026-05-08 06:38 35.68695 -115.61182 14926 ft 305 kts 46°
2026-05-08 06:39 35.70122 -115.59247 14774 ft 305 kts 46°
2026-05-08 06:39 35.71544 -115.57319 14622 ft 304 kts 46°
2026-05-08 06:39 35.73049 -115.55510 14423 ft 301 kts 33°
2026-05-08 06:39 35.74848 -115.54208 14303 ft 300 kts 29°
2026-05-08 06:40 35.76656 -115.52918 14194 ft 300 kts 29°
2026-05-08 06:40 35.78467 -115.51637 14060 ft 300 kts 29°
2026-05-08 06:40 35.80275 -115.50365 13915 ft 299 kts 29°
2026-05-08 06:40 35.82077 -115.49099 13767 ft 298 kts 29°
2026-05-08 06:41 35.83883 -115.47831 13590 ft 298 kts 28°
2026-05-08 06:41 35.85677 -115.46572 13416 ft 296 kts 28°
2026-05-08 06:41 35.87465 -115.45316 13278 ft 296 kts 28°
2026-05-08 06:41 35.89251 -115.44062 13132 ft 295 kts 28°
2026-05-08 06:42 35.91038 -115.42810 12985 ft 295 kts 28°
2026-05-08 06:42 35.92829 -115.41561 12721 ft 295 kts 28°
2026-05-08 06:42 35.94602 -115.40323 12457 ft 291 kts 28°
2026-05-08 06:42 35.96367 -115.39091 12196 ft 292 kts 28°
2026-05-08 06:43 35.98135 -115.37855 11948 ft 292 kts 28°
2026-05-08 06:43 35.99837 -115.36493 11667 ft 293 kts 41°
2026-05-08 06:43 36.01012 -115.34444 11376 ft 296 kts 66°
2026-05-08 06:43 36.01403 -115.31953 11143 ft 299 kts 88°
2026-05-08 06:44 36.01299 -115.29377 10937 ft 300 kts 90°
2026-05-08 06:44 36.01189 -115.26816 10676 ft 297 kts 90°
2026-05-08 06:44 36.01072 -115.24281 10418 ft 294 kts 91°
2026-05-08 06:44 36.00951 -115.21772 10166 ft 291 kts 91°
2026-05-08 06:45 36.00829 -115.19298 9918 ft 288 kts 91°
2026-05-08 06:45 36.00707 -115.16848 9652 ft 284 kts 91°
2026-05-08 06:45 36.00586 -115.14422 9381 ft 281 kts 91°
2026-05-08 06:45 36.00465 -115.12030 9144 ft 277 kts 91°
2026-05-08 06:46 36.00346 -115.09680 8960 ft 271 kts 91°
2026-05-08 06:46 36.00229 -115.07370 8701 ft 268 kts 91°
2026-05-08 06:46 36.00112 -115.05082 8468 ft 265 kts 91°
2026-05-08 06:46 35.99996 -115.02824 8230 ft 262 kts 92°
2026-05-08 06:47 35.99909 -115.00599 8047 ft 257 kts 89°
2026-05-08 06:47 35.99902 -114.98451 7832 ft 250 kts 89°
2026-05-08 06:47 35.99900 -114.96310 7731 ft 251 kts 89°
2026-05-08 06:47 35.99899 -114.94146 7643 ft 252 kts 89°
2026-05-08 06:48 35.99898 -114.91982 7530 ft 252 kts 89°
2026-05-08 06:48 35.99897 -114.89817 7430 ft 252 kts 89°
2026-05-08 06:48 35.99906 -114.87663 7317 ft 251 kts 85°
2026-05-08 06:48 36.00443 -114.85666 7126 ft 245 kts 49°
2026-05-08 06:49 36.01794 -114.84497 6833 ft 239 kts 11°
2026-05-08 06:49 36.03394 -114.84603 6571 ft 231 kts 337°
2026-05-08 06:49 36.04858 -114.85453 6243 ft 234 kts 330°
2026-05-08 06:49 36.06266 -114.86448 5929 ft 231 kts 318°
2026-05-08 06:50 36.07217 -114.87996 5661 ft 224 kts 292°
2026-05-08 06:50 36.07636 -114.89794 5424 ft 217 kts 276°
2026-05-08 06:50 36.07694 -114.91646 5184 ft 214 kts 268°
2026-05-08 06:50 36.07653 -114.93480 4931 ft 212 kts 269°
2026-05-08 06:51 36.07645 -114.95233 4722 ft 197 kts 270°
2026-05-08 06:51 36.07647 -114.96874 4483 ft 186 kts 269°
2026-05-08 06:51 36.07647 -114.98438 4242 ft 178 kts 270°